Location: Boulincourt
(48.8484°N, 1.7779°E)
Time: 05:50:03
(UTC+00:00)

Daily predictions for brighter satellites

Satellite Brightness Start Highest point End
(mag) Time Altitude Azimuth Time Altitude Azimuth Time Altitude Azimuth
SL-16 R/B 4.1 00:59:05 31° NNE 00:59:05 31° NNE 01:02:34 10° N
SL-16 R/B 4.4 01:06:44 21° N 01:06:44 21° N 01:08:46 10° NNE
ADEOS II 4.0 01:34:01 10° NNE 01:36:36 27° NE 01:36:36 27° NE
Cosmos 1697 Rocket 4.3 02:08:54 10° NNW 02:13:56 32° NE 02:18:58 10° ESE
Cosmos 1821 Rocket 4.4 02:17:01 59° NNE 02:17:01 59° NNE 02:22:03 10° N
ALOS 4.4 02:13:53 10° NE 02:17:20 20° E 02:17:49 20° E
Cosmos 2123 Rocket 4.2 02:18:22 10° N 02:24:34 64° ENE 02:24:57 63° E
CZ-2D R/B 3.5 02:23:31 10° N 02:26:25 30° NNW 02:26:25 30° NNW
Resurs 1-4 Rocket 3.6 02:24:56 10° N 02:27:37 28° NNW 02:27:37 28° NNW
Cosmos 1934 Rocket 4.2 02:35:19 60° SE 02:36:03 65° E 02:42:19 10° NNE
SL-16 R/B 4.2 02:44:11 20° NW 02:44:11 20° NW 02:46:12 10° NNW
Cosmos 1932 4.5 02:46:39 69° NW 02:46:39 69° NW 02:52:57 10° NE
IDEFIX/ARIANE 42P 3.5 02:46:09 10° N 02:49:43 39° NNW 02:49:43 39° NNW
Cosmos 1980 Rocket 3.8 02:48:49 10° NNW 02:53:51 33° NE 02:58:51 10° ESE
USA 305 4.5 02:57:54 30° ESE 02:57:54 30° ESE 03:00:30 10° ENE
MSX 4.0 02:52:39 10° N 02:57:46 58° NW 02:57:46 58° NW
BREEZE-M DEB (TANK) 4.3 03:08:22 33° S 03:08:22 33° S 03:15:39 10° SE
CBERS-1 4.3 03:02:24 10° NNE 03:07:29 63° ESE 03:08:37 50° SSE
X-37B 3.8 03:10:50 10° ESE 03:10:50 10° ESE 03:10:52 10° ESE
IRS-1D 3.4 03:04:50 10° NNE 03:10:11 78° WNW 03:10:11 78° WNW
Cosmos 1190 Rocket 4.2 03:06:04 10° NNW 03:11:16 71° ENE 03:16:28 10° SSE
BREEZE-M DEB (TANK) 4.1 03:13:25 27° E 03:13:25 27° E 03:14:34 10° E
Cosmos 1633 Rocket 4.1 03:09:37 10° N 03:13:49 44° ENE 03:17:58 10° SSE
ATLAS CENTAUR R/B 3.4 03:12:27 23° SSE 03:14:11 28° ESE 03:18:21 10° ENE
PAYLOAD A 4.5 03:12:49 10° NNE 03:17:31 53° E 03:19:42 30° SSE
ADEOS II 3.2 03:13:59 10° N 03:17:31 29° NW 03:17:31 29° NW
Cosmos 407 Rocket 3.7 03:15:55 10° NNW 03:27:30 - SSE 03:20:08 53° NW
Atlas Centaur 2 4.4 03:21:38 19° S 03:22:00 20° S 03:27:11 10° SE
ATLAS 5 CENTAUR R/B 3.9 03:22:01 13° NNW 03:23:25 14° N 03:26:00 10° NNE
Cosmos 1666 Rocket 3.7 03:21:57 10° N 03:26:26 72° E 03:30:04 15° SSE
Meteor 1-14 Rocket 4.2 03:22:58 10° NNW 03:28:48 61° W 03:30:18 46° SSW
Cosmos 1515 4.5 03:29:05 39° SE 03:29:56 48° E 03:33:33 10° NNE
Cosmos 1328 Rocket 4.5 03:28:13 19° SSE 03:31:03 47° E 03:35:17 10° NNE
USA 307 3.2 03:32:44 54° SSE 03:32:54 54° SE 03:36:58 10° ENE
Cosmos 1833 Rocket 2.7 03:32:49 38° SSW 03:35:04 79° ESE 03:40:45 10° NNE
CZ-2C R/B 2.4 03:30:16 10° NNE 03:35:19 80° ESE 03:37:31 34° S
Cosmos 2360 4.1 03:32:13 10° NNW 03:37:56 75° WSW 03:43:36 10° SSE
Cosmos 1151 Rocket 2.8 03:39:15 62° SSW 03:39:57 85° WNW 03:44:14 10° N
FENGYUN 3A 3.6 03:34:42 10° N 03:40:04 67° WNW 03:41:44 43° SW
Meteor 1-11 Rocket 3.9 03:37:05 10° N 03:43:07 83° E 03:49:04 10° SSE
USA 306 2.7 03:44:56 64° SSW 03:45:27 75° SSE 03:49:34 10° ENE
ARIANE 5 R/B 2.8 03:44:28 10° NNE 03:49:30 64° ESE 03:54:27 10° S
Cosmos 2082 Rocket 3.2 03:46:45 10° S 03:52:03 45° ESE 03:57:23 10° NE
Cosmos 1153 Rocket 4.4 03:46:40 10° S 03:52:49 89° WNW 03:59:05 10° N
Lacrosse 4 Rocket 3.9 03:49:35 10° NNW 03:53:03 23° NE 03:56:33 10° E
Cosmos 2100 Rocket 4.4 03:48:28 10° S 03:54:29 62° E 04:00:34 10° NNE
RUBIN 8/PSLV 4.5 03:50:13 10° N 03:54:32 71° WNW 03:56:07 38° SSW
ALOS 2.4 03:50:28 10° N 03:55:02 54° WNW 03:56:17 41° WSW
Cosmos 1470 Rocket 3.7 03:53:19 10° N 03:57:40 75° E 04:02:01 10° SSE
Cosmos 1697 Rocket 2.7 03:52:41 10° NW 03:58:11 54° WSW 04:03:40 10° S
COSMOS 2406 3.5 03:55:00 14° SSW 03:59:50 67° ESE 04:05:28 10° NNE
METEOR-M 4.1 03:55:00 10° NNE 04:00:23 87° WNW 04:05:23 12° SSW
Helios 1B rocket 2.3 03:57:05 10° N 04:01:10 75° WNW 04:03:02 31° SSW
Cosmos 676 Rocket 3.9 03:56:18 10° NNW 04:01:32 75° WSW 04:06:45 10° SSE
Cosmos 1356 3.5 04:02:57 50° NW 04:02:57 50° NW 04:05:51 10° N
IRS-P3 4.1 03:59:41 10° NNE 04:05:04 89° ESE 04:10:25 10° SSW
CZ-2D R/B 3.6 04:02:03 10° NNE 04:05:59 68° ESE 04:09:58 10° S
ERBS 2.7 04:06:51 38° NNW 04:06:51 38° NNW 04:09:34 10° NE
USA 308 2.7 04:06:20 40° WSW 04:07:46 86° SSE 04:11:56 10° ENE
CZ-2C R/B 2.5 04:02:44 10° S 04:07:56 73° WSW 04:13:17 10° NNW
Cosmos 1743 2.5 04:04:16 10° NNW 04:08:02 64° W 04:11:47 10° S
BREEZE-M DEB (TANK) 1.4 04:07:53 64° WSW 04:08:12 88° S 04:12:01 10° E
Cosmos 1624 Rocket 4.0 04:06:30 23° SW 04:09:53 72° WNW 04:15:14 10° NNE
Cosmos 1536 2.8 04:10:07 10° NNW 04:14:07 58° W 04:18:04 10° S
Cosmos 1441 Rocket 3.0 04:12:34 21° SSW 04:14:57 76° WNW 04:18:43 10° N
Envisat 3.4 04:11:02 10° NNE 04:16:07 66° ESE 04:21:10 10° S
Meteor 1-4 Rocket 2.6 04:13:43 10° NNW 04:17:16 53° W 04:20:50 10° S
Cosmos 1371 Rocket 4.2 04:20:33 21° SW 04:23:57 52° WNW 04:29:05 10° NNE
CZ-2C R/B 4.3 04:20:46 10° NNE 04:24:18 37° E 04:27:52 10° SSE
Cosmos 1346 Rocket 3.1 04:22:51 25° SW 04:24:47 43° WNW 04:28:36 10° N
Cosmos 2322 Rocket 3.9 04:23:24 10° NNW 04:28:36 35° NE 04:33:44 10° ESE
COSMO-SKYMED 1 3.9 04:26:15 10° SE 04:30:22 44° ENE 04:34:31 10° N
H-2A R/B 3.1 04:30:37 10° NNE 04:34:15 63° E 04:37:52 10° S
Cosmos 1459 Rocket 4.0 04:29:06 10° SSW 04:35:27 76° W 04:41:52 10° N
SL-08 R/B 3.4 04:31:03 10° S 04:35:36 53° W 04:40:16 10° NNW
USA 305 3.0 04:33:26 22° W 04:35:55 62° NNW 04:40:02 10° ENE
DELTA 2 DEB (DPAF) 4.5 04:32:43 10° S 04:36:53 41° W 04:41:04 10° NNW
Tsikada Rocket 4.4 04:30:56 10° N 04:37:16 68° ENE 04:43:28 10° SSE
Cosmos 1980 Rocket 2.3 04:32:41 10° NW 04:38:06 51° WSW 04:43:29 10° S
CENTAUR R/B 3.1 04:33:06 10° SSW 04:38:46 58° ESE 04:45:40 10° NE
Cosmos 1869 Rocket 4.2 04:35:24 10° N 04:39:50 62° ENE 04:44:12 10° SSE
Meteor 2-9 Rocket 4.2 04:35:01 10° NNW 04:40:48 77° W 04:46:24 10° S
Meteor 1-29 2.7 04:37:43 10° N 04:41:01 76° WNW 04:44:18 10° SSW
X-37B 1.2 04:42:04 21° WSW 04:43:30 37° S 04:46:13 10° ESE
Cosmos 1802 Rocket 4.0 04:37:08 10° S 04:43:31 82° W 04:49:53 10° N
CZ-2C R/B 3.3 04:38:10 10° NNE 04:44:00 88° E 04:49:37 10° SSW
Cosmos 2369 4.0 04:39:15 10° NW 04:44:37 43° WSW 04:49:54 10° S
Meteor 1-27 Rocket 3.9 04:39:11 10° SSW 04:44:49 54° WNW 04:50:36 10° N
Cosmos 1850 Rocket 4.0 04:41:11 10° NNW 04:46:32 78° WSW 04:51:52 10° SSE
COSMOS 2455 4.4 04:41:10 10° NNW 04:46:41 36° NE 04:52:11 10° ESE
YAOGAN 6 2.9 04:46:12 10° N 04:49:41 44° WNW 04:53:08 10° SW
Cosmos 1633 Rocket 4.3 04:48:06 10° NW 04:51:16 20° W 04:54:26 10° SW
Cosmos 2278 3.7 04:46:37 10° NNW 04:52:16 71° WSW 04:57:53 10° SSE
DMSP B5D2-2 4.3 04:47:12 10° SSE 04:52:27 77° ENE 04:57:44 10° NNW
ATLAS CENTAUR R/B 2.0 04:48:27 13° WSW 04:52:44 54° NW 04:57:30 10° NNE
Cosmos 1725 Rocket 4.1 04:47:04 10° S 04:53:24 88° W 04:59:47 10° N
Cosmos 2056 Rocket 4.2 04:50:11 13° WSW 04:54:17 33° NW 04:58:55 10° N
CZ-4C R/B 3.6 04:51:34 10° S 04:55:39 55° W 04:59:55 10° NNW
SL-16 R/B 2.7 04:50:11 10° NNW 04:55:52 67° ENE 05:01:30 10° SE
NOSS 3-2 (A) 3.5 04:53:35 10° SSW 04:59:02 76° SE 05:05:29 10° NE
Okean 1 3.5 04:55:57 10° SSW 04:59:53 53° WNW 05:03:53 10° N
BREEZE-M DEB (TANK) 3.5 04:59:06 13° W 05:01:32 36° SSW 05:08:26 10° SE
NOAA 11 4.3 04:56:18 10° NNE 05:01:50 89° ESE 05:07:18 10° SSW
Cosmos 1933 Rocket 4.0 04:58:30 10° NNW 05:02:41 40° W 05:06:48 10° SSW
Cosmos 44 Rocket 3.3 04:58:13 10° SW 05:02:54 64° NW 05:07:36 10° NE
Cosmos 1461 3.3 05:00:37 10° SSW 05:04:34 62° ESE 05:08:42 10° NE
Cosmos 2173 Rocket 4.3 05:00:33 10° SW 05:06:22 44° WNW 05:12:11 10° N
Cosmos 1484 Rocket 3.8 05:04:31 10° N 05:07:55 27° WNW 05:11:16 10° SW
GP-B 3.5 05:04:31 10° SSW 05:08:43 42° W 05:12:57 10° NNW
ATLAS 5 CENTAUR R/B 4.1 05:06:25 10° NNW 05:09:46 19° NNE 05:13:34 10° ENE
Spot 4 Rocket 4.2 05:06:35 10° N 05:11:34 52° WNW 05:16:32 10° SW
SJ-6F 4.4 05:07:35 10° N 05:11:46 73° WNW 05:15:52 10° SSW
USA 307 3.3 05:08:19 10° W 05:12:22 51° NNW 05:16:27 10° ENE
CZ-2C R/B 4.0 05:09:37 10° NNW 05:12:52 18° WNW 05:16:03 10° W
PSLV R/B 3.6 05:09:04 10° N 05:13:22 62° WNW 05:17:36 10° SSW
Cosmos 1741 Rocket 4.2 05:10:00 10° NNW 05:15:00 48° WSW 05:19:59 10° S
Orbus 7S? 4.3 05:12:44 10° W 05:16:10 51° NNW 05:23:23 10° ENE
Meteor 1-31 Rocket 4.3 05:13:02 10° NNE 05:16:41 42° E 05:20:19 10° S
Cosmos 1733 4.2 05:13:05 10° N 05:16:45 50° ENE 05:20:22 10° SSE
OPS 6432 4.2 05:14:45 10° NW 05:17:43 80° NE 05:20:59 10° SE
SKYMED 2 3.6 05:14:05 10° S 05:18:23 63° WSW 05:22:43 10° NNW
Cosmos 1833 Rocket 3.9 05:15:09 10° W 05:19:40 24° NW 05:24:11 10° N
CZ-4B R/B 3.6 05:14:49 10° NNE 05:20:04 89° WNW 05:25:21 10° SSW
Cosmos 2333 Rocket 3.8 05:16:48 10° NNW 05:22:08 38° NE 05:27:23 10° ESE
CZ-3 R/B 4.2 05:15:05 10° WSW 05:27:51 23° SSW 05:33:39 10° SSE
BREEZE M DEB (TANK) 3.9 05:17:44 10° W 05:33:32 88° S 05:37:32 10° ESE
